Tracking 17938 objects as of 23-February-2017
HD Live streaming from Space Station
objects crossing your sky now

ARIANE 44L+3 R/B

Track ARIANE 44L+3 R/B now!


NORAD ID: 23866
Int'l Code: 1996-030C
Perigee: 318.9 km
Apogee: 30,745.3 km
Inclination: 4.1 °
Period: 537.7 minutes
Semi major axis: 21903 km
RCS: 20.3809 m2 (large)
Launch date: May 16, 1996
Source: France (FR)
Launch site: FRENCH GUIANA (FRGUI)

Note: This is a ROCKET BODY
Your satellite tracking list
Your tracking list is empty





NASA's NSSDC Master Catalog

Two Line Element Set (TLE):
1 23866U 96030C   17053.10868958  .00001266  00000-0  68917-3 0  9993
2 23866   4.1477 230.7813 6945699 183.5681 165.4848  2.67821094187959
Source of the keplerian elements: AFSPC